Tracking 28096 objects as of 28-Sep-2023
HD Live streaming from Space Station
objects crossing your sky now

FLOCK 4X 32

Track FLOCK 4X 32 now!
10-day predictions


NORAD ID: 51024
Int'l Code: 2022-002AS
Perigee: 475.0 km
Apogee: 486.0 km
Inclination: 97.4 °
Period: 94.1 minutes
Semi major axis: 6851 km
RCS: Unknown
Launch date: January 13, 2022
Source: United States (US)
Launch site: AIR FORCE EASTERN TEST RANGE (AFETR)
Your satellite tracking list
Your tracking list is empty




NASA's NSSDC Master Catalog

Two Line Element Set (TLE):
1 51024U 22002AS  23270.71264174  .00027489  00000-0  92218-3 0  9999
2 51024  97.4328 339.4287 0008038 219.4005 140.6652 15.30826544 94514
Source of the keplerian elements: AFSPC